Location: Newark
(40.8000°N, 14.5000°E)
Time: 21:07:55
(UTC+00:00)

OTV 5 (USA 277) - Pass Details

Date: 26 August 2019
Orbit: 310 x 324 km, 54.5° (Epoch: 08 October)

Event Time Altitude Azimuth Distance (km) Brightness Sun altitude
Rises 19:57:42 0° 281° (W) 2,034 ? -23.3°
Reaches altitude 10° 20:01:06 10° 328° (NNW) 1,206 ? -23.8°
Maximum altitude 20:01:33 10° 337° (NNW) 1,191 ? -23.9°
Drops below altitude 10° 20:02:00 10° 347° (NNW) 1,207 ? -23.9°
Enters shadow 20:02:54 - 5° (N) 1,324 ? -24.1°
